KAZSAT-2

Last updated on Sat Dec 13 2025 00:02:47 GMT+0000 (Coordinated Universal Time)

1 37749U 11035B 25346.29335258 -.00000187 00000+0 00000+0 0 9992 2 37749 0.0298 229.0803 0001613 93.7430 310.5320 1.00269675 51525
UTC large
Height (km)
Speed (km/s)
/
Latitude / Longitude
Inclination (degrees)
Orbital Period (minutes)
Azimuth
Elevation
Range (km)
Doppler Factor

Next 0 passes for location: London (51.5072 / 0.1276)

Sorry there are no passes over London.